[[{"header":{"parameterUnit":"m.s-1","parameterCategory":1,"la1":30.2991,"la2":30.254,"lo1":-89.0895,"lo2":-89.0444,"dy":0.0017,"dx":0.0017,"nx":28,"ny":28,"refTime":"2024-05-11T21:00:00:Z","depth":0,"parameterNumber":2,"parameterNumberName":"U-component_of_WINDS"},"data":[0,0,0,0,0,0,0,0,0,0,0,0,0,0,0,0,0,0,0,0,0,0,0,0,0,0,0,0,0,0,0,0,0,0,0,0,0,0,0,0,0,0,0,0,0,0,0,0,0,0,0,0,0,0,0,0,0,0,-2.7631,-2.7632,0,-2.7728,-2.7729,-2.773,-2.7657,-2.7654,-2.7651,-2.7648,-2.7748,-2.7753,-2.7759,0,0,0,0,0,0,0,0,0,0,0,0,0,-2.7382,-2.7387,-2.763,-2.7632,-2.7633,-2.7728,-2.7729,-2.773,-2.7658,-2.7654,-2.765,-2.7647,-2.7746,-2.7752,-2.7759,0,0,0,0,0,0,0,0,0,0,0,0,0,-2.7486,-2.7388,-2.763,-2.7608,-2.7607,-2.7727,-2.7729,-2.7731,-2.7659,-2.7654,-2.7649,-2.7645,-2.7744,-2.7752,-2.776,-2.7907,0,0,-2.7786,-2.7789,0,0,0,0,0,0,0,0,-2.748,-2.7495,-2.761,-2.761,-2.7609,-2.7676,-2.7678,-2.779,-2.766,-2.7639,-2.7648,-2.7642,-2.7727,-2.7737,-2.7765,-2.7912,-2.7916,-2.7786,-2.7791,-2.7795,-2.7797,0,0,0,0,0,0,0,-2.7473,-2.749,-2.7669,-2.7612,-2.7611,-2.7593,-2.7603,-2.7698,-2.7709,-2.7641,-2.7636,-2.7648,-2.7726,-2.7758,-2.7767,-2.7917,-2.7786,-2.7794,-2.7799,-2.7802,-2.8188,-2.8193,0,0,0,0,0,0,-2.7468,-2.7485,-2.7666,-2.7672,-2.7531,-2.7602,-2.7612,-2.7659,-2.7707,-2.771,-2.7652,-2.7644,-2.7746,-2.7758,-2.7771,-2.7945,-2.7795,-2.7803,-2.7808,-2.8183,-2.8189,-2.8195,0,0,0,0,0,0,-2.7463,-2.7484,-2.7662,-2.7577,-2.7598,-2.7611,-2.7664,-2.7663,-2.7695,-2.7716,-2.7718,-2.7682,-2.7742,-2.7759,-2.7873,-2.7947,-2.7807,-2.7814,-2.8177,-2.8185,-2.8192,-2.8295,0,0,0,0,0,0,-2.7456,-2.7483,-2.7539,-2.7579,-2.7603,-2.7763,-2.7669,-2.7669,-2.7709,-2.77,-2.7745,-2.7748,-2.774,-2.7861,-2.7882,-2.7956,-2.7821,-2.817,-2.818,-2.819,-2.8285,-2.8306,-2.8323,0,0,0,0,0,-2.7447,-2.7564,-2.7542,-2.7564,-2.7673,-2.7768,-2.7782,-2.777,-2.7716,-2.7772,-2.7786,-2.7746,-2.7936,-2.7874,-2.7896,-2.7974,-2.8165,-2.8177,-2.8189,-2.8277,-2.8302,-2.8323,0,0,0,0,0,0,-2.7533,-2.7569,-2.7545,-2.7679,-2.7721,-2.7755,-2.7826,-2.7797,-2.7855,-2.7844,-2.7828,-2.7838,-2.7958,-2.7978,-2.7907,-2.8119,-2.8042,-2.8059,-2.8101,-2.8125,-2.8144,-2.8136,-2.7828,0,0,0,0,0,-2.7567,-2.7641,-2.7669,-2.7784,-2.7806,-2.7813,-2.7854,-2.7841,-2.7884,-2.7901,-2.7923,-2.7967,-2.8036,-2.8082,-2.8147,-2.8288,-2.8296,-2.8353,-2.8372,-2.8387,-2.8402,-2.8477,-2.8502,-2.8233,-2.8233,-2.8233,0,0,-2.7639,-2.7668,-2.7716,-2.7802,-2.7833,-2.791,-2.7828,-2.7913,-2.7969,-2.7914,-2.8023,-2.8042,-2.8088,-2.8217,-2.8275,-2.8237,-2.8478,-2.8402,-2.8415,-2.842,-2.8492,-2.8517,-2.854,-2.8241,-2.824,-2.8239,0,0,-2.7808,-2.7838,-2.7937,-2.797,-2.8018,-2.8022,-2.8046,-2.8086,-2.8095,-2.8205,-2.8165,-2.8232,-2.8352,-2.8387,-2.842,-2.8604,-2.857,-2.8626,-2.8724,-2.8798,-2.8819,-2.8837,-2.8902,-2.8925,-2.864,-2.8641,-2.8641,0,-2.7891,-2.8005,-2.7991,-2.8079,-2.8118,-2.8072,-2.8172,-2.8205,-2.8272,-2.83,-2.8257,-2.8406,-2.8435,-2.857,-2.8615,-2.8644,-2.867,-2.862,-2.8817,-2.8836,-2.8853,-2.8914,-2.8938,-2.8647,-2.8646,-2.8646,-2.8645,0,-2.8104,-2.8183,-2.8258,-2.8323,-2.8371,-2.8464,-2.8465,-2.8515,-2.8499,-2.8507,-2.8619,-2.8652,-2.8722,-2.8754,-2.8739,-2.8888,-2.8863,-2.8819,-2.8741,-2.8885,-2.8942,-2.8965,-2.8656,-2.8654,-2.8652,-2.865,0,0,-2.8328,-2.8386,-2.8413,-2.8442,-2.8493,-2.8554,-2.8646,-2.8715,-2.8757,-2.8806,-2.8881,-2.8984,-2.8944,-2.8982,-2.8971,-2.9036,-2.9178,-2.8984,-2.8985,-2.9018,-2.9343,-2.9374,-2.9401,-2.9157,-2.9161,-2.9165,-2.9338,0,-2.8498,-2.8657,-2.8648,-2.8797,-2.887,-2.8829,-2.8908,-2.8948,-2.8958,-2.9022,-2.9033,-2.9106,-2.9048,-2.9071,-2.9133,-2.9148,-2.9243,-2.9135,-2.9226,-2.9229,-2.9213,-2.9431,-2.9464,-2.9626,-2.936,-2.9364,-2.9367,0,-2.8718,-2.8774,-2.893,-2.897,-2.9,-2.9071,-2.9134,-2.9196,-2.924,-2.9243,-2.9286,-2.9264,-2.9356,-2.9278,-2.9405,-2.9332,-2.9368,-2.9381,-2.9387,-2.9393,-2.9305,-2.9442,-2.9678,-2.9701,-2.9402,-2.94,-2.9397,0,-2.8863,-2.8978,-2.9086,-2.9113,-2.9162,-2.9213,-2.9236,-2.9276,-2.9318,-2.9373,-2.94,-2.9465,-2.9501,-2.9552,-2.9548,-2.9492,-2.9676,-2.9598,-2.968,-2.9681,-2.9719,-2.9716,-2.9963,-2.9747,-2.9746,-2.9746,-2.9745,0,-2.9053,-2.915,-2.9152,-2.9218,-2.9325,-2.9315,-2.9421,-2.9439,-2.9475,-2.9543,-2.9512,-2.9577,-2.957,-2.9636,-2.9634,-2.9738,-2.9755,-2.976,-2.9757,-2.9761,-2.976,-2.9783,-2.9771,-2.9752,-2.9751,-2.975,-2.9749,0,-2.9232,-2.9238,-2.9353,-2.9391,-2.9403,-2.948,-2.9512,-2.9575,-2.9583,-2.967,-2.969,-2.9704,-2.978,-2.9782,-2.9869,-2.9868,-2.9994,-2.9981,-2.9979,-2.9976,-3.0058,-3.0049,-3.0325,-3.0361,-3.0124,-3.0126,-3.0128,0,-2.9352,-2.9425,-2.9472,-2.9515,-2.9542,-2.9613,-2.9656,-2.9649,-2.9695,-2.9751,-2.9807,-2.988,-2.9938,-3.0061,-3.0078,-3.0145,-3.0131,-3.0224,-3.0141,-3.0142,-3.013,-3.0125,-3.0132,-3.0239,-3.0242,-3.0244,-3.0246,0,-2.9563,-2.9562,-2.9625,-2.969,-2.9743,-2.9793,-2.984,-2.9878,-2.9876,-2.993,-3.0007,-3.0052,-3.0141,-3.0213,-3.0278,-3.0302,-3.0273,-3.0272,-3.0294,-3.0297,-3.0292,-3.0294,-3.0021,-3.0265,-3.0263,-3.0262,-3.0261,-3.026,-2.9714,-2.9777,-2.982,-2.9891,-2.9926,-2.9971,-3.0031,-3.0048,-3.0112,-3.0184,-3.0177,-3.0262,-3.0305,-3.0389,-3.0418,-3.0485,-3.0453,-3.0486,-3.0493,-3.0501,-3.0509,-3.0284,-3.0497,-3.0497,-3.0496,-3.0496,-3.0495,0,-2.9922,-2.9947,-3.0013,-3.008,-3.0137,-3.0107,-3.0157,-3.0206,-3.0282,-3.0324,-3.0382,-3.0471,-3.0541,-3.0565,-3.0633,-3.0682,-3.0671,-3.07,-3.0695,-3.0701,-3.0535,-3.0507,-3.0708,-3.0708,-3.0708,-3.0708,-3.0708,-3.0708,-3.0036,-3.0141,-3.0145,-3.0267,-3.0292,-3.0376,-3.0407,-3.0448,-3.0482,-3.0582,-3.0641,-3.0656,-3.0691,-3.0762,-3.0826,-3.0831,-3.0856,-3.0891,-3.089,-3.0734,-3.0713,-3.0692,-3.0666,-3.0897,-3.0897,-3.105,-3.1052,-3.1053]},{"header":{"parameterUnit":"m.s-1","parameterCategory":1,"la1":30.2991,"la2":30.254,"lo1":-89.0895,"lo2":-89.0444,"dy":0.0017,"dx":0.0017,"nx":28,"ny":28,"refTime":"2024-05-11T21:00:00:Z","depth":0,"parameterNumber":3,"parameterNumberName":"V-component_of_WINDS"},"data":[0,0,0,0,0,0,0,0,0,0,0,0,0,0,0,0,0,0,0,0,0,0,0,0,0,0,0,0,0,0,0,0,0,0,0,0,0,0,0,0,0,0,0,0,0,0,0,0,0,0,0,0,0,0,0,0,0,0,-2.1015,-2.1017,0,-2.1137,-2.1138,-2.114,-2.1175,-2.1175,-2.1174,-2.1174,-2.1292,-2.1296,-2.1299,0,0,0,0,0,0,0,0,0,0,0,0,0,-2.0808,-2.0812,-2.1015,-2.1017,-2.1018,-2.1137,-2.1138,-2.114,-2.1175,-2.1175,-2.1174,-2.1173,-2.1291,-2.1295,-2.13,0,0,0,0,0,0,0,0,0,0,0,0,0,-2.0911,-2.0813,-2.1015,-2.1051,-2.1055,-2.1136,-2.1139,-2.1141,-2.1176,-2.1175,-2.1174,-2.1173,-2.1289,-2.1295,-2.13,-2.1353,0,0,-2.1317,-2.132,0,0,0,0,0,0,0,0,-2.0905,-2.0918,-2.1044,-2.1048,-2.1053,-2.114,-2.1109,-2.1212,-2.1176,-2.113,-2.1174,-2.1172,-2.1242,-2.1251,-2.1276,-2.1359,-2.1364,-2.1318,-2.1321,-2.1324,-2.1325,0,0,0,0,0,0,0,-2.0898,-2.0913,-2.1063,-2.1045,-2.1051,-2.1059,-2.1072,-2.1129,-2.1189,-2.1134,-2.1136,-2.1151,-2.1244,-2.127,-2.1279,-2.1366,-2.1318,-2.1323,-2.1326,-2.1328,-2.1499,-2.15,0,0,0,0,0,0,-2.0885,-2.0907,-2.1059,-2.1067,-2.0976,-2.1063,-2.1078,-2.1113,-2.1189,-2.12,-2.1151,-2.1152,-2.1261,-2.1272,-2.1283,-2.1351,-2.1323,-2.1329,-2.1332,-2.1497,-2.1499,-2.15,0,0,0,0,0,0,-2.0881,-2.0899,-2.1055,-2.0988,-2.1008,-2.1068,-2.1107,-2.1116,-2.1142,-2.1202,-2.1213,-2.1167,-2.1261,-2.1275,-2.1336,-2.1355,-2.1331,-2.1336,-2.1496,-2.1498,-2.1499,-2.1485,0,0,0,0,0,0,-2.0875,-2.0897,-2.0919,-2.0988,-2.1012,-2.1107,-2.1108,-2.1119,-2.1153,-2.1155,-2.122,-2.123,-2.1261,-2.1328,-2.1342,-2.1362,-2.1341,-2.1495,-2.1497,-2.1499,-2.1484,-2.1486,-2.1488,0,0,0,0,0,-2.0867,-2.0909,-2.092,-2.0938,-2.1041,-2.1108,-2.1121,-2.1158,-2.1154,-2.1176,-2.1214,-2.1228,-2.1351,-2.1334,-2.135,-2.1372,-2.1493,-2.1496,-2.1499,-2.1483,-2.1486,-2.1488,0,0,0,0,0,0,-2.0837,-2.0918,-2.0932,-2.0997,-2.1046,-2.1114,-2.1142,-2.116,-2.1209,-2.1208,-2.125,-2.1265,-2.1322,-2.1354,-2.1333,-2.1428,-2.1422,-2.1428,-2.1405,-2.1408,-2.141,-2.1401,-2.1345,0,0,0,0,0,-2.0839,-2.0889,-2.0956,-2.1007,-2.1031,-2.1083,-2.1113,-2.1138,-2.1189,-2.1209,-2.1252,-2.1299,-2.1349,-2.138,-2.1429,-2.1489,-2.1504,-2.1513,-2.1515,-2.1516,-2.152,-2.1554,-2.1559,-2.1509,-2.1509,-2.1509,0,0,-2.0841,-2.0892,-2.092,-2.1002,-2.1043,-2.1092,-2.1099,-2.115,-2.1187,-2.1216,-2.1277,-2.131,-2.1366,-2.1426,-2.1455,-2.1454,-2.1537,-2.1519,-2.152,-2.1524,-2.1557,-2.1562,-2.1566,-2.151,-2.151,-2.151,0,0,-2.0871,-2.0915,-2.0962,-2.1003,-2.1066,-2.11,-2.1111,-2.1178,-2.1202,-2.1264,-2.1287,-2.1329,-2.1414,-2.1453,-2.1483,-2.1529,-2.1543,-2.1544,-2.1553,-2.1586,-2.159,-2.1593,-2.1609,-2.1614,-2.1548,-2.1548,-2.1548,0,-2.0866,-2.0942,-2.0984,-2.1035,-2.107,-2.1101,-2.1149,-2.1186,-2.126,-2.1282,-2.1281,-2.1388,-2.1428,-2.1498,-2.1509,-2.1533,-2.1546,-2.1536,-2.1586,-2.159,-2.1594,-2.161,-2.1615,-2.1548,-2.1548,-2.1548,-2.1548,0,-2.0932,-2.0985,-2.1016,-2.1089,-2.1127,-2.1176,-2.1224,-2.1257,-2.1279,-2.1313,-2.1375,-2.1424,-2.1484,-2.1502,-2.1523,-2.1576,-2.1573,-2.1578,-2.1573,-2.1598,-2.1613,-2.1619,-2.1547,-2.1547,-2.1547,-2.1548,0,0,-2.0945,-2.1042,-2.1053,-2.1087,-2.1158,-2.1199,-2.1248,-2.1309,-2.1337,-2.1387,-2.1428,-2.15,-2.1506,-2.1541,-2.1566,-2.1595,-2.1627,-2.1597,-2.1598,-2.16,-2.1688,-2.1683,-2.1689,-2.1638,-2.1639,-2.164,-2.1683,0,-2.0983,-2.1076,-2.1115,-2.1189,-2.1237,-2.1268,-2.1312,-2.1359,-2.1393,-2.1437,-2.1473,-2.1523,-2.1527,-2.1549,-2.1579,-2.1617,-2.1645,-2.1614,-2.1675,-2.1677,-2.1659,-2.1697,-2.1692,-2.173,-2.1689,-2.169,-2.1691,0,-2.104,-2.1093,-2.1172,-2.1238,-2.126,-2.1299,-2.1357,-2.14,-2.1455,-2.1477,-2.1517,-2.1541,-2.1593,-2.1586,-2.1657,-2.1635,-2.1663,-2.1685,-2.1688,-2.1694,-2.1684,-2.1703,-2.1743,-2.1748,-2.1701,-2.17,-2.1699,0,-2.104,-2.1131,-2.119,-2.1218,-2.1298,-2.1324,-2.1358,-2.1411,-2.1445,-2.1496,-2.1518,-2.1574,-2.1603,-2.1645,-2.1683,-2.1675,-2.1751,-2.1747,-2.1769,-2.1768,-2.1783,-2.1781,-2.1826,-2.1802,-2.1802,-2.1802,-2.1801,0,-2.1078,-2.1125,-2.1192,-2.1228,-2.1281,-2.1326,-2.1376,-2.1412,-2.146,-2.1503,-2.1532,-2.1571,-2.162,-2.1664,-2.1694,-2.1749,-2.1762,-2.178,-2.1787,-2.1777,-2.1775,-2.1794,-2.1792,-2.1803,-2.1803,-2.1802,-2.1802,0,-2.1087,-2.1134,-2.12,-2.1271,-2.129,-2.1326,-2.1385,-2.1421,-2.1456,-2.1509,-2.1524,-2.1579,-2.1633,-2.1676,-2.1746,-2.1766,-2.1823,-2.1832,-2.1805,-2.1809,-2.1829,-2.1826,-2.1887,-2.1898,-2.1867,-2.1867,-2.1867,0,-2.1107,-2.1145,-2.122,-2.1252,-2.1286,-2.1336,-2.1372,-2.1417,-2.1452,-2.1518,-2.1545,-2.1602,-2.165,-2.1735,-2.178,-2.1833,-2.1843,-2.1861,-2.1851,-2.1839,-2.1842,-2.1839,-2.1843,-2.1861,-2.1861,-2.1861,-2.1862,0,-2.1139,-2.1161,-2.1212,-2.1271,-2.1314,-2.1362,-2.1411,-2.1435,-2.1488,-2.1526,-2.1584,-2.1621,-2.1694,-2.1749,-2.1808,-2.1841,-2.186,-2.1865,-2.1873,-2.1862,-2.1845,-2.1854,-2.1808,-2.1863,-2.1863,-2.1862,-2.1862,-2.1862,-2.1154,-2.1188,-2.1247,-2.1303,-2.1345,-2.1391,-2.1428,-2.1469,-2.1518,-2.1582,-2.1606,-2.1664,-2.1717,-2.1799,-2.1832,-2.1877,-2.1878,-2.189,-2.1893,-2.1895,-2.1893,-2.1839,-2.1888,-2.1888,-2.1888,-2.1888,-2.1888,0,-2.1186,-2.1226,-2.1277,-2.1346,-2.139,-2.1407,-2.1462,-2.1497,-2.1548,-2.1598,-2.1645,-2.1711,-2.1765,-2.1815,-2.1872,-2.1898,-2.1908,-2.1911,-2.1909,-2.1916,-2.1889,-2.1877,-2.1902,-2.1902,-2.1902,-2.1902,-2.1902,-2.1902,-2.1208,-2.1267,-2.1296,-2.1377,-2.1416,-2.1475,-2.1505,-2.1547,-2.1587,-2.1659,-2.1705,-2.1738,-2.1788,-2.1848,-2.1899,-2.1912,-2.1931,-2.1932,-2.1947,-2.192,-2.1918,-2.1916,-2.1904,-2.1936,-2.1936,-2.197,-2.197,-2.197]}]]